TimeCDT,TemperatureF,Dew PointF,Humidity,Sea Level PressureIn,VisibilityMPH,Wind Direction,Wind SpeedMPH,Gust SpeedMPH,PrecipitationIn,Events,Conditions,WindDirDegrees,DateUTC
12:15 AM,29.3,26.4,89,30.19,10.0,Calm,Calm,-,N/A,,Clear,0,2012-10-11 05:15:00
12:35 AM,30.9,28.2,90,30.19,10.0,Calm,Calm,-,N/A,,Clear,0,2012-10-11 05:35:00
12:55 AM,31.8,27.9,85,30.19,10.0,Calm,Calm,-,N/A,,Clear,0,2012-10-11 05:55:00
1:15 AM,28.9,25.3,86,30.19,10.0,Calm,Calm,-,N/A,,Clear,0,2012-10-11 06:15:00
1:35 AM,29.1,25.5,86,30.19,10.0,Calm,Calm,-,N/A,,Clear,0,2012-10-11 06:35:00
1:55 AM,28.6,25.9,90,30.18,10.0,Calm,Calm,-,N/A,,Clear,0,2012-10-11 06:55:00
2:15 AM,29.1,27.3,93,30.18,10.0,Calm,Calm,-,N/A,,Clear,0,2012-10-11 07:15:00
2:35 AM,31.6,28.4,88,30.18,10.0,Calm,Calm,-,N/A,,Clear,0,2012-10-11 07:35:00
2:55 AM,30.7,27.1,86,30.18,10.0,Calm,Calm,-,N/A,,Clear,0,2012-10-11 07:55:00
3:15 AM,29.7,27.0,90,30.18,10.0,Calm,Calm,-,N/A,,Clear,0,2012-10-11 08:15:00
3:35 AM,30.4,27.1,88,30.18,10.0,SSW,3.5,-,N/A,,Clear,210,2012-10-11 08:35:00
3:55 AM,31.5,27.7,86,30.18,10.0,Calm,Calm,-,N/A,,Scattered Clouds,0,2012-10-11 08:55:00
4:15 AM,31.3,27.5,86,30.18,10.0,SSW,3.5,-,N/A,,Clear,210,2012-10-11 09:15:00
4:35 AM,30.7,27.3,87,30.18,10.0,SSW,4.6,-,N/A,,Scattered Clouds,210,2012-10-11 09:35:00
4:55 AM,31.3,27.5,86,30.19,10.0,SSW,4.6,-,N/A,,Clear,210,2012-10-11 09:55:00
5:15 AM,31.3,27.5,86,30.18,10.0,SSW,3.5,-,N/A,,Clear,210,2012-10-11 10:15:00
5:35 AM,32.0,27.7,84,30.18,10.0,Calm,Calm,-,N/A,,Clear,0,2012-10-11 10:35:00
5:55 AM,32.0,27.5,83,30.18,10.0,South,3.5,-,N/A,,Clear,190,2012-10-11 10:55:00
6:15 AM,32.0,27.5,83,30.19,10.0,SSW,3.5,-,N/A,,Clear,200,2012-10-11 11:15:00
6:35 AM,31.6,27.3,84,30.19,10.0,SSW,3.5,-,N/A,,Clear,200,2012-10-11 11:35:00
6:55 AM,32.0,27.9,85,30.19,10.0,SSW,5.8,-,N/A,,Clear,210,2012-10-11 11:55:00
7:15 AM,32.7,28.4,84,30.19,10.0,SSW,5.8,-,N/A,,Clear,210,2012-10-11 12:15:00
7:35 AM,33.4,28.8,83,30.18,10.0,SSW,8.1,-,N/A,,Clear,210,2012-10-11 12:35:00
7:55 AM,36.0,29.3,77,30.18,10.0,SSW,9.2,16.1,N/A,,Clear,210,2012-10-11 12:55:00
8:15 AM,38.1,30.2,73,30.18,10.0,SSW,10.4,-,N/A,,Clear,210,2012-10-11 13:15:00
8:35 AM,40.1,31.1,70,30.18,10.0,SW,12.7,-,N/A,,Clear,220,2012-10-11 13:35:00
8:55 AM,42.1,31.6,67,30.18,10.0,SW,13.8,19.6,N/A,,Clear,220,2012-10-11 13:55:00
9:15 AM,45.1,32.0,60,30.18,10.0,SW,17.3,21.9,N/A,,Clear,230,2012-10-11 14:15:00
9:35 AM,47.5,32.0,55,30.18,10.0,SW,16.1,23.0,N/A,,Clear,230,2012-10-11 14:35:00
9:55 AM,49.1,31.3,50,30.18,10.0,SW,20.7,28.8,N/A,,Clear,230,2012-10-11 14:55:00
10:15 AM,50.5,30.9,47,30.17,10.0,SW,18.4,27.6,N/A,,Clear,230,2012-10-11 15:15:00
10:35 AM,52.3,31.1,44,30.16,10.0,SW,19.6,26.5,N/A,,Clear,220,2012-10-11 15:35:00
10:55 AM,53.6,30.7,42,30.16,10.0,SW,17.3,28.8,N/A,,Clear,220,2012-10-11 15:55:00
11:15 AM,55.6,30.7,39,30.16,10.0,WSW,18.4,28.8,N/A,,Clear,240,2012-10-11 16:15:00
11:35 AM,56.5,30.2,37,30.14,10.0,SW,19.6,27.6,N/A,,Clear,220,2012-10-11 16:35:00
11:55 AM,57.0,29.1,35,30.14,10.0,SW,19.6,28.8,N/A,,Clear,230,2012-10-11 16:55:00
12:15 PM,57.7,29.5,34,30.14,10.0,SW,20.7,31.1,N/A,,Clear,230,2012-10-11 17:15:00
12:55 PM,59.2,29.5,32,30.13,10.0,SW,20.7,27.6,N/A,,Clear,230,2012-10-11 17:55:00
1:15 PM,60.3,29.3,31,30.11,10.0,WSW,20.7,29.9,N/A,,Clear,250,2012-10-11 18:15:00
1:35 PM,60.4,29.5,31,30.10,10.0,SW,24.2,32.2,N/A,,Clear,230,2012-10-11 18:35:00
1:55 PM,61.3,29.7,30,30.10,10.0,SW,20.7,29.9,N/A,,Clear,220,2012-10-11 18:55:00
2:15 PM,61.7,29.8,30,30.09,10.0,SW,20.7,29.9,N/A,,Clear,220,2012-10-11 19:15:00
2:35 PM,62.1,29.7,29,30.09,10.0,SW,21.9,31.1,N/A,,Clear,220,2012-10-11 19:35:00
2:55 PM,62.1,29.8,30,30.09,10.0,WSW,18.4,25.3,N/A,,Clear,250,2012-10-11 19:55:00
3:15 PM,62.1,30.0,30,30.09,10.0,SW,20.7,27.6,N/A,,Clear,230,2012-10-11 20:15:00
3:55 PM,61.9,30.4,31,30.08,10.0,WSW,13.8,27.6,N/A,,Clear,240,2012-10-11 20:55:00
4:15 PM,62.6,30.2,30,30.08,10.0,SW,19.6,23.0,N/A,,Clear,230,2012-10-11 21:15:00
4:55 PM,62.4,30.6,30,30.08,10.0,WSW,18.4,24.2,N/A,,Clear,240,2012-10-11 21:55:00
5:35 PM,60.8,30.9,32,30.09,10.0,WSW,11.5,19.6,N/A,,Clear,240,2012-10-11 22:35:00
5:55 PM,59.0,31.1,35,30.09,10.0,WSW,11.5,19.6,N/A,,Clear,240,2012-10-11 22:55:00
6:35 PM,57.2,32.0,38,30.11,10.0,WSW,8.1,-,N/A,,Clear,240,2012-10-11 23:35:00
6:55 PM,57.2,32.2,39,30.10,10.0,SW,5.8,-,N/A,,Mostly Cloudy,230,2012-10-11 23:55:00
7:15 PM,56.5,32.7,41,30.10,10.0,SW,6.9,-,N/A,,Overcast,230,2012-10-12 00:15:00
7:35 PM,55.0,33.3,44,30.10,10.0,SW,8.1,-,N/A,,Scattered Clouds,220,2012-10-12 00:35:00
7:55 PM,54.9,33.1,44,30.10,10.0,SW,8.1,-,N/A,,Scattered Clouds,230,2012-10-12 00:55:00
8:15 PM,54.5,33.3,45,30.12,10.0,NW,9.2,-,N/A,,Clear,310,2012-10-12 01:15:00
8:35 PM,54.7,39.7,57,30.14,10.0,North,10.4,18.4,N/A,,Scattered Clouds,350,2012-10-12 01:35:00
8:55 PM,53.4,43.9,70,30.16,10.0,North,15.0,21.9,N/A,,Clear,360,2012-10-12 01:55:00
9:15 PM,52.0,43.7,73,30.16,10.0,North,12.7,-,N/A,,Scattered Clouds,360,2012-10-12 02:15:00
9:35 PM,51.1,43.2,74,30.18,10.0,North,15.0,21.9,N/A,,Mostly Cloudy,360,2012-10-12 02:35:00
9:55 PM,50.9,42.8,74,30.19,10.0,North,12.7,-,N/A,,Overcast,10,2012-10-12 02:55:00
10:55 PM,49.5,41.2,73,30.21,10.0,North,9.2,17.3,N/A,,Overcast,360,2012-10-12 03:55:00
11:15 PM,49.1,41.0,74,30.22,10.0,North,12.7,-,N/A,,Overcast,360,2012-10-12 04:15:00
11:35 PM,49.1,41.0,74,30.22,10.0,North,10.4,18.4,N/A,,Overcast,10,2012-10-12 04:35:00
11:55 PM,48.2,39.4,72,30.22,10.0,North,12.7,-,N/A,,Overcast,360,2012-10-12 04:55:00